Location: Muck Cross
(36.7179°N, 78.3678°W)
Time: 13:01:46
(UTC+00:00)

SR - All Passes

Search period start: 26 March 2023 00:00
Search period end: 05 April 2023 00:00
Orbit: 583 x 866 km, 66.7° (Epoch: 25 March)

Date Brightness Start Highest point End Pass type
(mag) Time Alt. Az. Time Alt. Az. Time Alt. Az.
26 Mar - 05:30:31 10° ESE 05:31:41 11° ESE 05:32:50 10° E night (unlit)
26 Mar - 07:08:26 10° SW 07:13:09 65° WNW 07:17:34 10° NNE visible
26 Mar - 15:50:45 10° NNW 15:54:54 44° ENE 15:59:15 10° SE daylight
26 Mar - 17:33:53 10° WNW 17:36:30 15° WSW 17:39:11 10° SW daylight
27 Mar - 06:17:52 10° S 06:22:30 52° ESE 06:26:51 10° NE visible
27 Mar - 08:01:52 10° W 08:04:41 16° NW 08:07:24 10° NNW visible
27 Mar - 15:00:48 10° N 15:04:02 20° NE 15:07:22 10° ESE daylight
27 Mar - 16:42:00 10° NW 16:46:01 36° WSW 16:50:16 10° S daylight
28 Mar - 05:28:18 10° SSE 05:31:58 22° ESE 05:35:27 10° ENE night (unlit)
28 Mar - 07:09:30 10° WSW 07:13:43 33° WNW 07:17:44 10° N visible
28 Mar - 15:51:03 10° NNW 15:55:25 90° WSW 16:00:03 10° SSE daylight
29 Mar - 06:18:14 10° SSW 06:22:58 76° WNW 06:27:23 10° NNE visible
29 Mar - 15:00:38 10° N 15:04:41 38° ENE 15:08:57 10° SE daylight
29 Mar - 16:43:19 10° WNW 16:46:21 18° WSW 16:49:30 10° SSW daylight
30 Mar - 05:27:48 10° S 05:32:19 44° ESE 05:36:33 10° NE night (unlit)
30 Mar - 07:11:17 10° W 07:14:24 18° NW 07:17:25 10° N visible
30 Mar - 14:10:47 10° N 14:13:46 18° NE 14:16:50 10° E daylight
30 Mar - 15:51:41 10° NW 15:55:50 43° WSW 16:00:14 10° S daylight
31 Mar - 04:38:29 10° SSE 04:41:47 19° ESE 04:44:58 10° ENE night (unlit)
31 Mar - 06:19:09 10° SW 06:23:29 37° WNW 06:27:35 10° N visible
31 Mar - 15:00:50 10° NNW 15:05:12 78° ENE 15:09:51 10° SSE daylight
01 Apr - 05:28:00 10° SSW 05:32:43 88° WNW 05:37:09 10° NNE night (unlit)
01 Apr - 14:10:28 10° N 14:14:25 33° ENE 14:18:34 10° ESE daylight
01 Apr - 15:52:48 10° WNW 15:56:09 21° WSW 15:59:39 10° SSW daylight
02 Apr - 04:37:44 10° S 04:42:05 38° ESE 04:46:12 10° NE night (unlit)
02 Apr - 06:20:42 10° WSW 06:24:06 20° NW 06:27:22 10° N visible
02 Apr - 13:20:46 10° NNE 13:23:27 16° NE 13:26:12 10° E daylight
02 Apr - 15:01:20 10° NW 15:05:36 50° WSW 15:10:07 10° S daylight
03 Apr - 03:48:41 10° SSE 03:51:34 16° ESE 03:54:21 10° ENE night (unlit)
03 Apr - 05:28:46 10° SW 05:33:11 43° WNW 05:37:22 10° NNE night (unlit)
03 Apr - 14:10:33 10° NNW 14:14:55 67° ENE 14:19:33 10° SE daylight
03 Apr - 15:55:53 10° W 15:56:21 10° WSW 15:56:49 10° WSW daylight
04 Apr - 04:37:45 10° SSW 04:42:27 79° ESE 04:46:50 10° NNE night (unlit)
04 Apr - 06:23:38 10° WNW 06:24:50 11° NW 06:26:01 10° NNW visible
04 Apr - 13:20:16 10° N 13:24:05 29° NE 13:28:05 10° ESE daylight
04 Apr - 15:02:16 10° NW 15:05:54 25° WSW 15:09:42 10° SSW daylight
